Retour au catalogue

STARLINK-36574

ActifCommunicationsSSO
NORAD 67535·PAYLOAD·🇺🇸 United States

Lancé Jan 22, 2026 depuis Vandenberg Space Force Base

Loading…

Prochains Passages (prochaines 24 heures)

TLE

FraisSource: CelesTrak SupGP

Époque: Sep 14, 2026, 22:37 UTC

1 67535C 26014D   26257.94284722  .00021278  00000+0  66067-3 0  2573
2 67535  97.2848 143.4034 0001629  89.6377  58.3469 15.33420395    14

Suivez STARLINK-36574 en temps réel avec AllMySat

Download on the App Store